Location: Bullfrog
(37.5121°N, 110.7330°W)
Time: 04:07:57
(UTC-06:00)

N. Korean satellite - Pass Details

Date: 30 September 2021
Orbit: 450 x 495 km, 97.3° (Epoch: 15 October)

Event Time Altitude Azimuth Distance (km) Brightness Sun altitude
Rises 06:10:53 0° 20° (NNE) 2,545 10.6 -14.1°
Reaches altitude 10° 06:13:03 10° 29° (NNE) 1,669 9.8 -13.7°
Maximum altitude 06:16:24 36° 98° (E) 780 8.3 -13.0°
Drops below altitude 10° 06:19:46 10° 167° (SSE) 1,675 9.4 -12.3°
Sets 06:21:56 0° 176° (S) 2,557 10.2 -11.9°
